Location: Doverdale
(52.2833°N, 2.2000°W)
Time: 02:13:10
(UTC+00:00)

Cosmos 1980 Rocket - Pass Details

Date: 04 March 2021
Orbit: 828 x 851 km, 71.0° (Epoch: 15 April)

Event Time Altitude Azimuth Distance (km) Brightness Sun altitude
Rises 22:11:20 0° 311° (NW) 3,423 6.3 -36.7°
Reaches altitude 10° 22:15:50 10° 344° (NNW) 2,490 5.3 -37.2°
Maximum altitude 22:17:43 12° 3° (N) 2,379 5.0 -37.4°
Drops below altitude 10° 22:19:37 10° 23° (NNE) 2,491 4.9 -37.6°
Enters shadow 22:20:19 - 29° (NNE) 2,582 4.9 -37.6°
